Change the Weather History Date:

Tuesday, October 9, 2012

  Actual Average Record
Temperature  
Mean Temperature 39 °F 51 °F  
Max Temperature 50 °F 66 °F 90 °F (2003)
Min Temperature 28 °F 36 °F 18 °F (2009)
Degree Days  
Heating Degree Days 26 14  
Month to date heating degree days 178 114  
Since 1 July heating degree days 263 308  
Cooling Degree Days 0 0  
Month to date cooling degree days 0 0  
Year to date cooling degree days 1021 678  
Moisture  
Dew Point 31 °F    
Average Humidity 66    
Maximum Humidity 85    
Minimum Humidity 46    
Precipitation  
Precipitation T in 0.04 in 0.48 in (2001)
Month to date precipitation 0.28 0.34  
Year to date precipitation 6.31 12.67  
Sea Level Pressure  
Sea Level Pressure 30.08 in    
Wind  
Wind Speed 8 mph (North)    
Max Wind Speed 9 mph    
Max Gust Speed 9 mph    
Visibility 10 miles    
Events      
T = Trace of Precipitation, MM = Missing Value Source: NWS Daily Summary

Daily Weather History Graph

Daily Weather History Graph

Search for Another Location

Airport or City:

Trip Planner

Search our weather history database for the weather conditions in past years. The results will help you decide how hot, cold, wet, or windy it might be!

Date:

Astronomy

Oct. 09, 2012 Rise Set
Actual Time 7:02 AM MDT 6:23 PM MDT
Civil Twilight 6:34 AM MDT 6:51 PM MDT
Nautical Twilight 6:02 AM MDT 7:24 PM MDT
Astronomical Twilight 5:30 AM MDT 7:56 PM MDT
Moon 12:35 AM MDT (10/9) 2:58 PM MDT (10/9)
Length of Visible Light 12h 16m
Length of Day
11h 20m
Last Quarter, 36% of the Moon is Illuminated
Oct 9
Last Quarter
Oct 15
New
Oct 21
First Quarter
Oct 29
Full
Nov 6
Last Quarter

Hourly Weather History & Observations

Time (MDT) Temp. Windchill Dew Point Humidity Pressure Visibility Wind Dir Wind Speed Gust Speed Precip Events Conditions
12:53 AM 46.0 °F 44.8 °F 37.9 °F 73% 29.86 in 10.0 mi NNE 3.5 mph - N/A   Partly Cloudy
2:53 AM 43.0 °F - 37.9 °F 82% 29.88 in 10.0 mi Calm Calm - N/A   Clear
3:53 AM 42.1 °F 36.6 °F 37.0 °F 82% 29.89 in 10.0 mi North 9.2 mph - N/A   Partly Cloudy
4:53 AM 43.0 °F 35.4 °F 37.0 °F 80% 29.91 in 10.0 mi North 16.1 mph - N/A   Overcast
5:01 AM 42.8 °F 35.8 °F 37.4 °F 81% 29.98 in 10.0 mi North 13.8 mph - N/A   Overcast
5:53 AM 42.1 °F 34.5 °F 35.1 °F 76% 29.96 in 10.0 mi NNE 15.0 mph - N/A   Overcast
6:53 AM 41.0 °F 34.3 °F 34.0 °F 76% 30.01 in 10.0 mi North 11.5 mph - N/A   Overcast
7:53 AM 39.0 °F 30.6 °F 30.9 °F 73% 30.05 in 10.0 mi North 15.0 mph 20.7 mph N/A   Overcast
8:53 AM 39.0 °F 32.3 °F 30.0 °F 70% 30.09 in 10.0 mi North 10.4 mph - N/A   Overcast
9:53 AM 39.0 °F 33.4 °F 28.9 °F 67% 30.13 in 10.0 mi North 8.1 mph - N/A   Overcast
10:53 AM 39.0 °F 34.0 °F 30.0 °F 70% 30.14 in 10.0 mi North 6.9 mph - N/A   Overcast
11:53 AM 39.9 °F 33.9 °F 30.0 °F 68% 30.15 in 10.0 mi NNW 9.2 mph - N/A   Overcast
12:53 PM 41.0 °F 35.8 °F 30.0 °F 65% 30.14 in 10.0 mi NNW 8.1 mph - 0.00 in   Overcast
2:53 PM 46.9 °F - 28.0 °F 48% 30.11 in 10.0 mi NNW 8.1 mph - N/A   Mostly Cloudy
3:53 PM 48.0 °F - 28.0 °F 46% 30.10 in 10.0 mi NW 13.8 mph - N/A   Scattered Clouds
4:53 PM 48.9 °F - 28.0 °F 44% 30.09 in 10.0 mi NNW 11.5 mph 16.1 mph N/A   Clear
5:53 PM 46.9 °F - 28.0 °F 48% 30.12 in 10.0 mi NNW 6.9 mph - N/A   Clear
6:53 PM 44.1 °F 42.5 °F 28.0 °F 53% 30.14 in 10.0 mi NNW 3.5 mph - N/A   Clear
7:53 PM 37.9 °F 35.5 °F 28.9 °F 70% 30.19 in 10.0 mi East 3.5 mph - N/A   Clear
8:53 PM 37.9 °F 33.5 °F 28.0 °F 68% 30.20 in 10.0 mi SSE 5.8 mph - N/A   Clear
9:53 PM 36.0 °F 33.3 °F 28.0 °F 73% 30.22 in 10.0 mi SSE 3.5 mph - N/A   Clear
10:53 PM 33.1 °F 30.0 °F 27.0 °F 78% 30.23 in 10.0 mi SSE 3.5 mph - N/A   Clear
11:53 PM 30.0 °F 24.1 °F 26.1 °F 85% 30.22 in 10.0 mi ENE 5.8 mph - N/A   Clear